Location: Rowland
(34.5359°N, 79.2929°W)
Time: 15:27:20
(UTC+00:00)

SR - Pass Details

Date: 08 October 2022
Orbit: 577 x 875 km, 66.7° (Epoch: 28 November)

Event Time Altitude Azimuth Distance (km) Brightness Sun altitude
Rises 00:44:16 0° 213° (SSW) 3,396 ? -23.7°
Reaches altitude 10° 00:46:43 10° 216° (SW) 2,487 ? -24.2°
Maximum altitude 00:52:29 66° 298° (WNW) 948 ? -25.4°
Drops below altitude 10° 00:58:22 10° 21° (NNE) 2,519 ? -26.5°
Enters shadow 00:58:57 - 22° (NNE) 2,734 ? -26.7°
Sets 01:00:52 0° 24° (NNE) 3,444 - -27.0°
